This demonstration page uses our WeatherBlox Daily Observations layout. Learn more.

Left ArrowRight Arrow

Hourly Observations for November 18, 2021

Temp ( °F °C ) Dew Point ( °F °C ) Humidity (%) Winds ( mph kmh ) Pressure ( in mb ) Visibility ( mi km ) Precip ( " mm )
12:53 am 00:53 Clear 14 -10 10 -12.2 84 84 ENE 7 11 30.33 1027 10 16 0.00 0.00
1:53 am 01:53 Clear 14 -10 10 -12.2 84 84 ENE 3 6 30.31 1026 10 16 0.00 0.00
2:53 am 02:53 Clear 15 -9.4 10 -12.2 80 80 E 7 11 30.28 1025 10 16 0.00 0.00
3:53 am 03:53 Clear 16 -8.9 11 -11.7 80 80 E 5 7 30.25 1024 10 16 0.00 0.00
4:53 am 04:53 Clear 15 -9.4 10 -12.2 80 80 E 9 15 30.22 1023 10 16 0.00 0.00
5:53 am 05:53 Clear 15 -9.4 11 -11.7 84 84 ENE 6 9 30.20 1023 10 16 0.00 0.00
6:53 am 06:53 Clear 15 -9.4 10 -12.2 80 80 Calm 30.19 1022 10 16 0.00 0.00
7:53 am 07:53 Sunny 15 -9.4 11 -11.7 84 84 Calm 30.17 1022 10 16 0.00 0.00
8:53 am 08:53 Sunny 17 -8.3 12 -11.1 80 80 E 3 6 30.14 1021 10 16 0.00 0.00
9:53 am 09:53 Sunny 20 -6.7 13 -10.6 74 74 Calm 30.12 1020 10 16 0.00 0.00
10:53 am 10:53 Sunny 23 -5 15 -9.4 72 72 SSE 3 6 30.09 1019 10 16 0.00 0.00
11:53 am 11:53 Cloudy 27 -2.8 16 -8.9 63 63 Calm 30.05 1018 10 16 0.00 0.00
12:53 pm 12:53 Cloudy 30 -1.1 17 -8.3 58 58 Calm 30.02 1017 10 16 0.00 0.00
1:53 pm 13:53 Mostly Sunny 36 2.2 17 -8.3 46 46 Calm 29.99 1016 10 16 0.00 0.00
2:53 pm 14:53 Sunny 37 2.8 16 -8.9 42 42 SW 7 11 29.97 1015 10 16 0.00 0.00
3:53 pm 15:53 Sunny 36 2.2 13 -10.6 39 39 WSW 5 7 29.96 1015 10 16 0.00 0.00
4:53 pm 16:53 Partly Cloudy 34 1.1 12 -11.1 40 40 Calm 29.96 1015 10 16 0.00 0.00
5:53 pm 17:53 Cloudy 33 0.6 17 -8.3 52 52 W 5 7 29.95 1014 10 16 0.00 0.00
6:53 pm 18:53 Cloudy 37 2.8 15 -9.4 41 41 WSW 10 17 29.94 1014 10 16 0.00 0.00
7:53 pm 19:53 Cloudy 37 2.8 15 -9.4 41 41 WSW 9 15 29.93 1013 10 16 0.00 0.00
8:53 pm 20:53 Cloudy 36 2.2 17 -8.3 46 46 WSW 10 17 29.92 1013 10 16 0.00 0.00
9:53 pm 21:53 Mostly Cloudy 38 3.3 17 -8.3 43 43 SW 10 17 29.93 1013 10 16 0.00 0.00
10:53 pm 22:53 Mostly Cloudy 36 2.2 20 -6.7 52 52 SW 10 17 29.93 1014 10 16 0.00 0.00
11:53 pm 23:53 Cloudy 38 3.3 21 -6.1 51 51 SSW 13 20 29.94 1014 10 16 0.00 0.00

Powered by AerisWeather